STARLINK-1677, 46576

Orbit data source: Space-Track

STARLINK-1677, 46576 is a payload satellite owned by SpaceX/Seattle (US) in LEO that was launched on Tue, 06 Oct 2020 UTC via an FALCON 9 launch vehicle from the Air Force Eastern Test Range (AFETR). Payload-class satellites include a variety of spacecraft equipped with specific instruments for various scientific and technological missions. These include communications satellites like Starlink; space stations such as the ISS; scientific satellites like the Hubble; Earth observation satellites from companies like Planet Labs, Umbra, and HawkEye 360; GPS; miniature CubeSats for education and research; and military/defense satellites.

Loading next visibility...
Identifier
46576, 2020-070AW
Orbit
LEO
Country
Flag of USUS
Related business
Manufacturer
SpaceX/Seattle
Mission
Operational Commercial Communications
Bus & Motor
STARLINK, Unknown motor
Mass
260 kg wet, ~248 kg dry
Launch date (UTC)
2020-10-06 (5 years ago)
Launch vehicle
FALCON 9
Launch site
Air Force Eastern Test Range (AFETR)
Object type
Payload
Rocket body
Debris
Shape & HBR
Box + 1 Pan, 4.4 m
Radar Cross Section
13.562 m², Large (>1 m²)

Expand to show TLE details & history
Last TLE update: 18 hours ago

TLE from 18 hours ago
0 STARLINK-1677
1 46576U 20070AW  25259.30149697 -.00000064  00000-0  14599-4 0  9992
2 46576  53.0533 224.4793 0001489  85.7736 274.3423 15.06407419273439
Epoch: 2025-09-16T07:14Z
TLE epoch observation values (Epoch: 2025-09-16T07:14:09.338Z)
Latitude
-0.00002°
Longitude
120.44662°
Altitude
547.99 km
Speed
7.589 km/s
True Right ascension
14h 57m 55s
True Declination
0° 00' 00"
Sunlit
Object was in daylight at epoch
Visualization orbit readout
Latitude
Unknown
Longitude
Unknown
Altitude
Unknown
Speed
Unknown
Apparent Right ascension
Unknown
Apparent Declination
Unknown
Sunlit
N/A
Visualization observer readout
Local Sidereal Time
18:24:21
Azimuth
Unknown
Elevation
Unknown
Doppler factor
Unknown
Orbital elements
Apogee altitude
548.491 km
Perigee altitude
546.429 km
Semi-major axis
6,925.597 km
Eccentricity
0.00015
Inclination
53.0533°
RAAN
224.4793°
Arg. of periapsis
85.7736°
True anomaly
274.32529°
Mean anomaly
274.3423°
Eccentric anomaly
274.33379°
Mean motion
3.7658 °/min
Orbital period
95.6 mins
BSTAR
0.000014599
Loading maneuver chart data...
Computing Atmospheric mass density...
Loading historical data...
Loading historical data...
Loading historical data...
Loading historical data...
Loading historical data...
Loading historical data...
Loading historical data...

Documentation

Showing up to 5 results
|